星链-37926(STARLINK-37926)

导读

STARLINK-37926(NORAD ID 69695)是美国SpaceX公司星链低轨宽带星座的在轨组网卫星,于2026年5月通过猎鹰9号火箭发射入轨,当前运行于近地轨道,主要承担全球低轨卫星宽带网络中继传输任务,属于Starlink第二代/批量组网卫星序列。该卫星支持高速宽带数据转发,部分同批次卫星具备直连手机服务能力,可补充偏远地区通信覆盖,是星链星座完成全球无缝通信组网的组成节点之一。目前卫星状态正常,轨道稳定,持续参与星座网络运营服务。

基本信息
目录编号:
69695
目录名称:
STARLINK-37926
国际标识:
2026-145U
轨道中心:
EARTH
卫星名称:
星链-37926
卫星全名:
星链-37926(STARLINK-37926)
卫星状态:
在轨 (已飞行71 天)
发射日期:
2026-06-25 UTC
国别 :
美国 (US)
星等 :
--
轨道信息
数据来源 国际轨道数据
星历时间: 2026-09-03T20:30:30+0800
16小时前
查看轨道信息
半长轴: 6843.657km
偏心率: 0.0001908
轨道倾角: 97.285°
近地点辐角 87.070°
升交点赤经 93.466°
平近点角 273.077°
近地点: 464.214km
远地点: 466.826km
周期: 93.906分钟
每日圈数: 15.33453
详细信息
固有亮度:
5
最大亮度:
2.5
卫星平台:
Starlink V1.0
覆盖范围:
全球
运营商:
太空探索技术公司
运营商所在国:
美国
制造商(研发单位):
太空探索技术公司
制造商所在国:
美国
使用方式:
暂无
卫星简介
Starlink 计划是 SpaceX 推出的全球卫星互联网项目,通过发射低轨道卫星,为全球尤其是偏远地区提供高速、低延迟的互联网服务。自 2019 年起,Starlink 已部署数千颗卫星,旨在缩小全球数字鸿沟,推动互联网普及。该项目还为军事、航空等行业提供通信支持,带来广泛经济效益。
2D轨道图
3D轨道图
轨道高度分析图
轨道倾角分析图
轨道综合分析图
查看轨道综合分析图
交会数据列表
事件ID 空间交会对象 最接近时刻(TCA) 交会距离 交会风险概率(CRP) 交会风险指数(CRI) 操作
CDM_260901-220802-058006-969522
HST (20580)
2026-09-01T
22:08:48+0000
1.094 km
极远距离
1.874841E-5 中风险 0.6
CDM_260905-062506-829406-969521
2026-09-05T
06:25:40+0000
1.149 km
极远距离
1.254238E-5 中风险 0.57
CDM_260905-071206-829406-969521
2026-09-05T
07:12:39+0000
2.443 km
极远距离
1.439764E-6 低风险 0.38
CDM_260904-121204-869106-969521
2026-09-04T
12:12:40+0000
2.904 km
极远距离
1.331408E-6 低风险 0.37
CDM_260905-021905-226306-969521
2026-09-05T
02:19:03+0000
2.809 km
极远距离
1.170994E-6 低风险 0.36